N514RS KCHS-NC06

Flight info

Callsign N514RS
Flight time N/A
Altitude 6500
Route CTF DCT CLT DCT BZM DCT GZG
Aircraft STAR/L-SDFGRWY/S

Departure

Time 2026-05-03 20:26
Airport Charleston International Airport (KCHS)

Arrival

Time N/A
Airport Elk River Airport (NC06)
Time Latitude Longitude Altitude Speed Heading
2026-05-03 20:15 32.89880 -80.03304 49 ft 0 kts 153°
2026-05-03 20:18 32.89859 -80.03315 37 ft 6 kts 231°
2026-05-03 20:18 32.89854 -80.03322 37 ft 0 kts 233°
2026-05-03 20:19 32.89837 -80.03347 37 ft 3 kts 223°
2026-05-03 20:19 32.89789 -80.03372 36 ft 7 kts 204°
2026-05-03 20:19 32.89775 -80.03425 36 ft 9 kts 307°
2026-05-03 20:19 32.89818 -80.03478 36 ft 10 kts 320°
2026-05-03 20:20 32.89912 -80.03547 36 ft 13 kts 335°
2026-05-03 20:20 32.89975 -80.03543 37 ft 10 kts 26°
2026-05-03 20:20 32.90055 -80.03499 37 ft 15 kts 24°
2026-05-03 20:20 32.90150 -80.03469 37 ft 15 kts 342°
2026-05-03 20:21 32.90196 -80.03552 37 ft 17 kts 294°
2026-05-03 20:21 32.90252 -80.03668 38 ft 17 kts 314°
2026-05-03 20:21 32.90351 -80.03775 37 ft 17 kts 318°
2026-05-03 20:21 32.90440 -80.03871 37 ft 20 kts 317°
2026-05-03 20:22 32.90541 -80.03978 37 ft 19 kts 317°
2026-05-03 20:22 32.90633 -80.04079 37 ft 18 kts 317°
2026-05-03 20:22 32.90722 -80.04173 37 ft 16 kts 319°
2026-05-03 20:22 32.90802 -80.04262 36 ft 13 kts 307°
2026-05-03 20:23 32.90828 -80.04325 37 ft 7 kts 290°
2026-05-03 20:23 32.90831 -80.04415 37 ft 13 kts 241°
2026-05-03 20:23 32.90809 -80.04434 37 ft 10 kts 197°
2026-05-03 20:23 32.90778 -80.04425 36 ft 0 kts 148°
2026-05-03 20:25 32.90741 -80.04397 35 ft 24 kts 148°
2026-05-03 20:25 32.90473 -80.04196 34 ft 66 kts 147°
2026-05-03 20:25 32.89958 -80.03806 37 ft 110 kts 148°
2026-05-03 20:25 32.89300 -80.03286 453 ft 120 kts 147°
2026-05-03 20:26 32.88572 -80.02703 894 ft 135 kts 146°
2026-05-03 20:26 32.88003 -80.01710 1249 ft 160 kts 103°
2026-05-03 20:26 32.88182 -80.00362 1636 ft 171 kts 57°
2026-05-03 20:26 32.89029 -79.99239 1740 ft 202 kts 45°
2026-05-03 20:27 32.90100 -79.98049 1638 ft 215 kts 32°
2026-05-03 20:27 32.91453 -79.97333 1720 ft 210 kts 10°
2026-05-03 20:27 32.92862 -79.97193 1736 ft 199 kts 356°
2026-05-03 20:27 32.94216 -79.97320 1698 ft 195 kts 350°
2026-05-03 20:28 32.95577 -79.97547 1626 ft 196 kts 351°
2026-05-03 20:28 32.96908 -79.97720 1665 ft 195 kts 352°
2026-05-03 20:28 32.98250 -79.97885 1653 ft 192 kts 352°
2026-05-03 20:28 32.99558 -79.98021 1599 ft 186 kts 352°
2026-05-03 20:29 33.00839 -79.98140 1541 ft 184 kts 353°
2026-05-03 20:29 33.02102 -79.98269 1506 ft 180 kts 353°
2026-05-03 20:29 33.03315 -79.98401 1500 ft 172 kts 352°
2026-05-03 20:29 33.04550 -79.98546 1502 ft 185 kts 352°
2026-05-03 20:30 33.05862 -79.98729 1483 ft 192 kts 352°
2026-05-03 20:30 33.07156 -79.98906 1476 ft 186 kts 351°
2026-05-03 20:30 33.08426 -79.99080 1475 ft 182 kts 351°
2026-05-03 20:30 33.09688 -79.99256 1479 ft 179 kts 351°
2026-05-03 20:31 33.10923 -79.99419 1477 ft 178 kts 351°
2026-05-03 20:31 33.12128 -79.99566 1470 ft 175 kts 351°
2026-05-03 20:31 33.13329 -79.99720 1466 ft 172 kts 352°
2026-05-03 20:31 33.14518 -79.99884 1483 ft 173 kts 351°
2026-05-03 20:32 33.15729 -80.00043 1480 ft 176 kts 351°
2026-05-03 20:32 33.16956 -80.00203 1471 ft 178 kts 351°
2026-05-03 20:32 33.18192 -80.00367 1476 ft 179 kts 351°
2026-05-03 20:32 33.19426 -80.00530 1478 ft 178 kts 351°
2026-05-03 20:33 33.20662 -80.00682 1478 ft 179 kts 351°
2026-05-03 20:33 33.21896 -80.00843 1472 ft 178 kts 352°
2026-05-03 20:33 33.23133 -80.01006 1477 ft 179 kts 351°
2026-05-03 20:33 33.24368 -80.01164 1479 ft 178 kts 352°
2026-05-03 20:34 33.25598 -80.01332 1473 ft 177 kts 348°
2026-05-03 20:34 33.26778 -80.01726 1471 ft 176 kts 336°
2026-05-03 20:34 33.27871 -80.02385 1473 ft 176 kts 329°
2026-05-03 20:34 33.28918 -80.03110 1481 ft 177 kts 326°
2026-05-03 20:35 33.29931 -80.03947 1480 ft 177 kts 321°
2026-05-03 20:35 33.30898 -80.04858 1477 ft 176 kts 319°
2026-05-03 20:35 33.31833 -80.05790 1479 ft 173 kts 317°
2026-05-03 20:35 33.32736 -80.06757 1478 ft 173 kts 315°
2026-05-03 20:36 33.33599 -80.07729 1481 ft 172 kts 314°
2026-05-03 20:36 33.34385 -80.08784 1485 ft 168 kts 299°
2026-05-03 20:36 33.34954 -80.09998 1514 ft 168 kts 297°
2026-05-03 20:36 33.35516 -80.11219 1506 ft 165 kts 301°
2026-05-03 20:37 33.36228 -80.12294 1474 ft 167 kts 310°
2026-05-03 20:37 33.37105 -80.13215 1452 ft 170 kts 326°
2026-05-03 20:37 33.38141 -80.13935 1432 ft 168 kts 322°
2026-05-03 20:37 33.39100 -80.14632 1683 ft 162 kts 342°
2026-05-03 20:38 33.40207 -80.14883 1753 ft 161 kts 348°
2026-05-03 20:38 33.41319 -80.15104 1871 ft 162 kts 349°
2026-05-03 20:38 33.42437 -80.15308 1973 ft 163 kts 350°
2026-05-03 20:38 33.43566 -80.15467 2210 ft 163 kts 351°
2026-05-03 20:39 33.44698 -80.15609 2877 ft 164 kts 351°
2026-05-03 20:39 33.45838 -80.15753 3590 ft 166 kts 351°
2026-05-03 20:39 33.47054 -80.15910 3878 ft 180 kts 351°
2026-05-03 20:39 33.48284 -80.16058 4132 ft 176 kts 352°
2026-05-03 20:40 33.49503 -80.16204 4317 ft 177 kts 352°
2026-05-03 20:40 33.50738 -80.16353 4398 ft 184 kts 352°
2026-05-03 20:40 33.52091 -80.16524 4441 ft 212 kts 351°
2026-05-03 20:40 33.53649 -80.16727 4461 ft 237 kts 352°
2026-05-03 20:41 33.55353 -80.16931 4469 ft 252 kts 353°
2026-05-03 20:41 33.57104 -80.17111 4473 ft 254 kts 354°
2026-05-03 20:41 33.58860 -80.17285 4474 ft 252 kts 354°
2026-05-03 20:41 33.60513 -80.16987 4535 ft 244 kts 20°
2026-05-03 20:42 33.62118 -80.16763 4483 ft 220 kts 354°
2026-05-03 20:42 33.63594 -80.16844 4470 ft 211 kts 355°
2026-05-03 20:42 33.65120 -80.16954 4452 ft 226 kts 354°
2026-05-03 20:42 33.66629 -80.17066 4463 ft 208 kts 355°
2026-05-03 20:43 33.68074 -80.17211 4445 ft 208 kts 354°
2026-05-03 20:43 33.69513 -80.17322 4457 ft 206 kts 353°
2026-05-03 20:43 33.70935 -80.17448 4467 ft 205 kts 354°
2026-05-03 20:43 33.72358 -80.17573 4471 ft 205 kts 354°
2026-05-03 20:44 33.73778 -80.17699 4473 ft 204 kts 354°
2026-05-03 20:44 33.75192 -80.17819 4484 ft 205 kts 354°
2026-05-03 20:44 33.76620 -80.17944 4480 ft 204 kts 354°
2026-05-03 20:44 33.78022 -80.18062 4482 ft 201 kts 354°
2026-05-03 20:45 33.79383 -80.18178 4478 ft 196 kts 354°
2026-05-03 20:45 33.80725 -80.18298 4483 ft 192 kts 354°
2026-05-03 20:45 33.82072 -80.18416 4483 ft 197 kts 354°
2026-05-03 20:45 33.83467 -80.18540 4492 ft 207 kts 353°
2026-05-03 20:46 33.84971 -80.18684 4486 ft 225 kts 354°
2026-05-03 20:46 33.86574 -80.18843 4480 ft 236 kts 354°
2026-05-03 20:46 33.88237 -80.19004 4484 ft 243 kts 354°
2026-05-03 20:46 33.89936 -80.19174 4482 ft 247 kts 354°
2026-05-03 20:47 33.91660 -80.19348 4479 ft 249 kts 354°
2026-05-03 20:47 33.93389 -80.19522 4486 ft 250 kts 354°
2026-05-03 20:47 33.95133 -80.19700 4486 ft 253 kts 353°
2026-05-03 20:47 33.96895 -80.19877 4485 ft 254 kts 354°
2026-05-03 20:48 33.98654 -80.20057 4483 ft 253 kts 354°
2026-05-03 20:48 34.00346 -80.20468 4482 ft 251 kts 334°
2026-05-03 20:48 34.01807 -80.21602 4482 ft 250 kts 322°
2026-05-03 20:48 34.03189 -80.22881 4479 ft 250 kts 322°
2026-05-03 20:49 34.04686 -80.23949 4481 ft 251 kts 332°
2026-05-03 20:49 34.06302 -80.24767 4481 ft 252 kts 338°
2026-05-03 20:49 34.07976 -80.25407 4479 ft 252 kts 343°
2026-05-03 20:49 34.09673 -80.25918 4482 ft 251 kts 345°
2026-05-03 20:50 34.11380 -80.26375 4483 ft 251 kts 347°
2026-05-03 20:50 34.13120 -80.26623 4468 ft 251 kts 355°
2026-05-03 20:50 34.14871 -80.26728 4473 ft 252 kts 356°
2026-05-03 20:50 34.16603 -80.26788 4471 ft 252 kts 357°
2026-05-03 20:51 34.18355 -80.26835 4475 ft 251 kts 358°
2026-05-03 20:51 34.20107 -80.26872 4475 ft 252 kts 357°
2026-05-03 20:51 34.21859 -80.26903 4471 ft 252 kts 358°
2026-05-03 20:51 34.23614 -80.26934 4468 ft 251 kts 358°
2026-05-03 20:52 34.25361 -80.26964 4467 ft 251 kts 358°
2026-05-03 20:52 34.27104 -80.26996 4469 ft 251 kts 358°
2026-05-03 20:52 34.28848 -80.27025 4467 ft 250 kts 358°
2026-05-03 20:52 34.30588 -80.27055 4463 ft 250 kts 358°
2026-05-03 20:53 34.32339 -80.27087 4466 ft 251 kts 358°
2026-05-03 20:53 34.34083 -80.27114 4464 ft 251 kts 358°
2026-05-03 20:53 34.35807 -80.27145 4461 ft 250 kts 358°
2026-05-03 20:53 34.37545 -80.27170 4463 ft 249 kts 357°
2026-05-03 20:54 34.38722 -80.27187 4462 ft 250 kts 357°
2026-05-03 20:54 34.42184 -80.27242 4464 ft 251 kts 357°
2026-05-03 20:54 34.43936 -80.27271 4465 ft 252 kts 358°
2026-05-03 20:55 34.45694 -80.27298 4491 ft 252 kts 357°
2026-05-03 20:55 34.47449 -80.27323 4486 ft 252 kts 357°
2026-05-03 20:55 34.49196 -80.27348 4488 ft 251 kts 357°
2026-05-03 20:55 34.50946 -80.27372 4482 ft 251 kts 357°
2026-05-03 20:56 34.52688 -80.27395 4484 ft 250 kts 358°
2026-05-03 20:56 34.54408 -80.27420 4480 ft 249 kts 358°
2026-05-03 20:56 34.56144 -80.27441 4483 ft 250 kts 357°
2026-05-03 20:56 34.57884 -80.27462 4482 ft 250 kts 358°
2026-05-03 20:57 34.59629 -80.27479 4475 ft 250 kts 358°
2026-05-03 20:57 34.61368 -80.27493 4475 ft 249 kts 358°
2026-05-03 20:57 34.63100 -80.27503 4481 ft 249 kts 358°
2026-05-03 20:57 34.64839 -80.27503 4481 ft 250 kts 358°
2026-05-03 20:58 34.66581 -80.27495 4477 ft 251 kts 358°
2026-05-03 20:58 34.68325 -80.27487 4481 ft 250 kts 358°
2026-05-03 20:58 34.70074 -80.27494 4474 ft 250 kts 355°
2026-05-03 20:58 34.71705 -80.28098 4477 ft 245 kts 326°
2026-05-03 20:59 34.72960 -80.29473 4478 ft 242 kts 309°
2026-05-03 20:59 34.73974 -80.31101 4482 ft 242 kts 303°
2026-05-03 20:59 34.74852 -80.32849 4485 ft 242 kts 296°
2026-05-03 20:59 34.75568 -80.34666 4488 ft 241 kts 293°
2026-05-03 21:00 34.76246 -80.36531 4489 ft 241 kts 292°
2026-05-03 21:00 34.76690 -80.37801 4488 ft 241 kts 292°
2026-05-03 21:00 34.77575 -80.40257 4497 ft 238 kts 298°
2026-05-03 21:00 34.78657 -80.41773 4495 ft 236 kts 315°
2026-05-03 21:01 34.79881 -80.43109 4495 ft 237 kts 317°
2026-05-03 21:01 34.81135 -80.44401 4495 ft 235 kts 318°
2026-05-03 21:01 34.82389 -80.45663 4496 ft 234 kts 319°
2026-05-03 21:01 34.83650 -80.46925 4496 ft 234 kts 319°
2026-05-03 21:02 34.84913 -80.48190 4496 ft 235 kts 319°
2026-05-03 21:02 34.86179 -80.49455 4495 ft 236 kts 319°
2026-05-03 21:02 34.87452 -80.50728 4490 ft 238 kts 319°
2026-05-03 21:02 34.88731 -80.52011 4503 ft 239 kts 319°
2026-05-03 21:03 34.89988 -80.53275 4498 ft 224 kts 319°
2026-05-03 21:03 34.91142 -80.54432 4492 ft 205 kts 318°
2026-05-03 21:03 34.92195 -80.55483 4490 ft 187 kts 318°
2026-05-03 21:03 34.93157 -80.56439 4491 ft 171 kts 317°
2026-05-03 21:04 34.94043 -80.57324 4495 ft 159 kts 317°
2026-05-03 21:04 34.94873 -80.58160 4492 ft 150 kts 317°
2026-05-03 21:04 34.95645 -80.58939 4495 ft 142 kts 317°
2026-05-03 21:04 34.96388 -80.59695 4495 ft 136 kts 316°
2026-05-03 21:05 34.97092 -80.60421 4499 ft 130 kts 315°
2026-05-03 21:05 34.97787 -80.61147 4494 ft 133 kts 315°
2026-05-03 21:05 34.98484 -80.61880 4492 ft 131 kts 315°
2026-05-03 21:05 34.99167 -80.62607 4487 ft 128 kts 314°
2026-05-03 21:06 34.99836 -80.63315 4498 ft 129 kts 315°
2026-05-03 21:06 35.00517 -80.64058 4492 ft 133 kts 315°
2026-05-03 21:06 35.01211 -80.64809 4491 ft 133 kts 314°
2026-05-03 21:06 35.01909 -80.65552 4494 ft 132 kts 315°
2026-05-03 21:07 35.02600 -80.66289 4496 ft 132 kts 315°
2026-05-03 21:07 35.03297 -80.67035 4497 ft 135 kts 315°
2026-05-03 21:07 35.04046 -80.67752 4495 ft 141 kts 333°
2026-05-03 21:07 35.05019 -80.68005 4497 ft 145 kts 348°
2026-05-03 21:08 35.06011 -80.68155 4495 ft 146 kts 350°
2026-05-03 21:08 35.07023 -80.68272 4499 ft 147 kts 351°
2026-05-03 21:08 35.08040 -80.68376 4496 ft 146 kts 352°
2026-05-03 21:08 35.09061 -80.68483 4495 ft 148 kts 352°
2026-05-03 21:09 35.10095 -80.68591 4490 ft 149 kts 352°